Torna al catalogo

FENGYUN 1C DEB

AttivoSSO
NORAD 46440·DEBRIS·🇨🇳 China

Lanciato May 10, 1999 da Taiyuan Satellite Launch Center

Loading…

Prossimi Passaggi (prossime 24 ore)

TLE

AggiornatoSource: Space-Track

Epoca: Sep 14, 2026, 22:00 UTC

1 46440U 99025EYV 26257.91730505  .00000513  00000-0  22080-3 0  9999
2 46440  98.5695 281.9347 0175727  55.8823  62.6622 14.20697021662905

Traccia FENGYUN 1C DEB in tempo reale con AllMySat

Download on the App Store